TimeEDT,TemperatureF,Dew PointF,Humidity,Sea Level PressureIn,VisibilityMPH,Wind Direction,Wind SpeedMPH,Gust SpeedMPH,PrecipitationIn,Events,Conditions,WindDirDegrees,DateUTC
12:54 AM,71.1,63.0,75,29.91,10.0,Calm,Calm,-,N/A,,Clear,0,2013-08-04 04:54:00
1:54 AM,71.1,63.0,75,29.90,10.0,Calm,Calm,-,N/A,,Clear,0,2013-08-04 05:54:00
2:54 AM,71.1,64.0,78,29.88,9.0,North,4.6,-,N/A,,Overcast,350,2013-08-04 06:54:00
3:54 AM,71.1,64.0,78,29.88,8.0,NNW,4.6,-,N/A,,Overcast,330,2013-08-04 07:54:00
4:54 AM,71.1,64.0,78,29.88,8.0,North,8.1,-,N/A,,Scattered Clouds,350,2013-08-04 08:54:00
5:54 AM,71.1,62.1,73,29.88,10.0,NNW,6.9,-,N/A,,Mostly Cloudy,340,2013-08-04 09:54:00
6:54 AM,72.0,62.1,71,29.88,8.0,North,5.8,-,N/A,,Scattered Clouds,350,2013-08-04 10:54:00
7:54 AM,75.0,64.0,69,29.90,9.0,NNW,9.2,-,N/A,,Clear,340,2013-08-04 11:54:00
8:54 AM,75.9,63.0,64,29.90,10.0,NNW,10.4,-,N/A,,Clear,340,2013-08-04 12:54:00
9:54 AM,79.0,64.0,60,29.91,10.0,North,9.2,-,N/A,,Clear,350,2013-08-04 13:54:00
10:54 AM,80.1,62.1,54,29.92,10.0,NNE,11.5,-,N/A,,Partly Cloudy,30,2013-08-04 14:54:00
11:54 AM,82.0,59.0,45,29.93,10.0,North,11.5,-,N/A,,Partly Cloudy,350,2013-08-04 15:54:00
12:54 PM,82.0,55.0,39,29.92,10.0,North,9.2,-,N/A,,Partly Cloudy,350,2013-08-04 16:54:00
1:54 PM,84.0,55.0,37,29.92,10.0,NNW,12.7,20.7,N/A,,Partly Cloudy,340,2013-08-04 17:54:00
2:54 PM,84.0,53.1,34,29.91,10.0,North,10.4,23.0,N/A,,Clear,360,2013-08-04 18:54:00
3:54 PM,82.9,53.1,36,29.91,10.0,North,10.4,-,N/A,,Partly Cloudy,360,2013-08-04 19:54:00
4:54 PM,82.9,53.1,36,29.92,10.0,North,13.8,19.6,N/A,,Clear,350,2013-08-04 20:54:00
5:54 PM,82.0,53.1,37,29.93,10.0,NNW,9.2,18.4,N/A,,Clear,330,2013-08-04 21:54:00
6:54 PM,80.1,55.0,42,29.94,10.0,North,8.1,-,N/A,,Clear,350,2013-08-04 22:54:00
7:54 PM,75.9,55.9,50,29.96,10.0,NNW,4.6,-,N/A,,Clear,330,2013-08-04 23:54:00
8:54 PM,73.0,55.9,55,29.97,10.0,NNW,4.6,-,N/A,,Clear,330,2013-08-05 00:54:00
9:54 PM,72.0,55.9,57,29.99,10.0,North,4.6,-,N/A,,Clear,10,2013-08-05 01:54:00
10:54 PM,72.0,55.0,55,29.99,10.0,North,4.6,-,N/A,,Clear,10,2013-08-05 02:54:00
11:54 PM,66.9,55.0,66,30.01,10.0,WNW,3.5,-,N/A,,Clear,300,2013-08-05 03:54:00